TimeCDT,TemperatureF,Dew PointF,Humidity,Sea Level PressureIn,VisibilityMPH,Wind Direction,Wind SpeedMPH,Gust SpeedMPH,PrecipitationIn,Events,Conditions,WindDirDegrees,DateUTC
12:15 AM,53.6,35.6,51,29.89,10.0,SSW,15.0,20.7,N/A,,Clear,200,2012-10-09 05:15:00
12:35 AM,53.6,35.6,51,29.89,10.0,SSW,17.3,20.7,N/A,,Clear,200,2012-10-09 05:35:00
12:55 AM,53.6,35.6,51,29.88,10.0,SSW,15.0,20.7,N/A,,Clear,200,2012-10-09 05:55:00
1:15 AM,53.6,35.6,51,29.89,10.0,SSW,17.3,23.0,N/A,,Clear,200,2012-10-09 06:15:00
1:35 AM,51.8,35.6,54,29.88,10.0,SSW,16.1,21.9,N/A,,Clear,200,2012-10-09 06:35:00
1:55 AM,51.8,35.6,54,29.89,10.0,SSW,13.8,20.7,N/A,,Clear,200,2012-10-09 06:55:00
2:15 AM,51.8,35.6,54,29.89,10.0,SSW,13.8,19.6,N/A,,Clear,200,2012-10-09 07:15:00
2:55 AM,51.8,37.4,58,29.89,10.0,SSW,11.5,18.4,N/A,,Clear,210,2012-10-09 07:55:00
3:15 AM,51.8,37.4,58,29.89,10.0,SSW,12.7,17.3,N/A,,Clear,200,2012-10-09 08:15:00
3:35 AM,51.8,37.4,58,29.89,10.0,SSW,11.5,-,N/A,,Clear,210,2012-10-09 08:35:00
3:55 AM,51.8,37.4,58,29.88,10.0,SSW,11.5,-,N/A,,Clear,200,2012-10-09 08:55:00
4:15 AM,50.0,37.4,62,29.88,10.0,SSW,13.8,-,N/A,,Clear,200,2012-10-09 09:15:00
4:35 AM,50.0,37.4,62,29.88,10.0,SSW,11.5,-,N/A,,Clear,200,2012-10-09 09:35:00
4:55 AM,51.8,37.4,58,29.88,10.0,SSW,10.4,-,N/A,,Clear,210,2012-10-09 09:55:00
5:15 AM,51.8,37.4,58,29.87,10.0,SSW,11.5,-,N/A,,Clear,200,2012-10-09 10:15:00
5:35 AM,51.8,37.4,58,29.88,10.0,SSW,12.7,17.3,N/A,,Clear,200,2012-10-09 10:35:00
5:55 AM,51.8,37.4,58,29.87,10.0,SSW,11.5,-,N/A,,Clear,210,2012-10-09 10:55:00
6:15 AM,51.8,37.4,58,29.87,10.0,SSW,9.2,-,N/A,,Clear,210,2012-10-09 11:15:00
6:55 AM,51.8,37.4,58,29.87,10.0,SSW,13.8,-,N/A,,Clear,200,2012-10-09 11:55:00
7:15 AM,51.8,37.4,58,29.87,10.0,SSW,10.4,-,N/A,,Clear,210,2012-10-09 12:15:00
7:35 AM,51.8,37.4,58,29.87,10.0,SSW,9.2,-,N/A,,Clear,210,2012-10-09 12:35:00
7:55 AM,51.8,37.4,58,29.88,10.0,SW,8.1,-,N/A,,Clear,220,2012-10-09 12:55:00
8:15 AM,51.8,37.4,58,29.88,10.0,SSW,8.1,-,N/A,,Clear,210,2012-10-09 13:15:00
8:35 AM,51.8,37.4,58,29.89,10.0,SSW,9.2,-,N/A,,Clear,210,2012-10-09 13:35:00
8:55 AM,51.8,37.4,58,29.89,10.0,SSW,9.2,-,N/A,,Clear,210,2012-10-09 13:55:00
9:15 AM,53.6,37.4,54,29.89,10.0,SSW,9.2,-,N/A,,Clear,210,2012-10-09 14:15:00
9:35 AM,53.6,37.4,54,29.89,10.0,SW,9.2,17.3,N/A,,Clear,220,2012-10-09 14:35:00
9:55 AM,55.4,37.4,51,29.89,10.0,SW,11.5,-,N/A,,Clear,230,2012-10-09 14:55:00
10:15 AM,55.4,37.4,51,29.89,10.0,SW,12.7,17.3,N/A,,Clear,230,2012-10-09 15:15:00
10:35 AM,57.2,37.4,48,29.89,10.0,SW,11.5,-,N/A,,Clear,230,2012-10-09 15:35:00
10:55 AM,59.0,37.4,45,29.90,10.0,WSW,12.7,16.1,N/A,,Clear,250,2012-10-09 15:55:00
11:15 AM,60.8,37.4,42,29.89,10.0,WSW,15.0,-,N/A,,Clear,240,2012-10-09 16:15:00
11:35 AM,60.8,37.4,42,29.89,10.0,West,10.4,-,N/A,,Clear,270,2012-10-09 16:35:00
11:55 AM,60.8,37.4,42,29.89,10.0,West,8.1,-,N/A,,Clear,280,2012-10-09 16:55:00
12:15 PM,62.6,37.4,39,29.89,10.0,WNW,10.4,17.3,N/A,,Clear,290,2012-10-09 17:15:00
12:35 PM,62.6,39.2,42,29.89,10.0,WNW,9.2,-,N/A,,Clear,300,2012-10-09 17:35:00
12:55 PM,62.6,37.4,39,29.89,10.0,West,8.1,-,N/A,,Clear,270,2012-10-09 17:55:00
1:15 PM,62.6,39.2,42,29.89,10.0,West,8.1,-,N/A,,Scattered Clouds,280,2012-10-09 18:15:00
1:35 PM,62.6,41.0,45,29.90,10.0,NW,13.8,19.6,N/A,,Overcast,320,2012-10-09 18:35:00
1:55 PM,60.8,42.8,52,29.92,10.0,NW,13.8,20.7,N/A,,Overcast,310,2012-10-09 18:55:00
2:15 PM,59.0,42.8,55,29.92,10.0,NW,12.7,21.9,N/A,,Overcast,320,2012-10-09 19:15:00
2:35 PM,57.2,42.8,59,29.93,10.0,NW,15.0,20.7,N/A,,Overcast,320,2012-10-09 19:35:00
2:55 PM,57.2,42.8,59,29.94,10.0,NNW,13.8,18.4,N/A,,Overcast,330,2012-10-09 19:55:00
3:15 PM,57.2,42.8,59,29.94,10.0,NW,12.7,-,N/A,,Overcast,320,2012-10-09 20:15:00
3:35 PM,55.4,41.0,58,29.95,10.0,NNW,17.3,23.0,N/A,,Overcast,330,2012-10-09 20:35:00
3:55 PM,51.8,42.8,71,29.96,10.0,NW,12.7,18.4,N/A,Rain,Light Rain,310,2012-10-09 20:55:00
4:15 PM,50.0,41.0,71,29.98,10.0,NW,11.5,26.5,N/A,Rain,Light Rain,320,2012-10-09 21:15:00
4:35 PM,48.2,39.2,71,29.99,10.0,NW,13.8,-,N/A,,Drizzle,320,2012-10-09 21:35:00
4:55 PM,46.4,39.2,76,29.99,10.0,NW,8.1,-,0.01,,Drizzle,320,2012-10-09 21:55:00
5:15 PM,46.4,39.2,76,29.98,10.0,NW,3.5,-,N/A,,Overcast,310,2012-10-09 22:15:00
5:35 PM,46.4,39.2,76,29.98,10.0,WNW,4.6,-,N/A,,Overcast,300,2012-10-09 22:35:00
5:55 PM,48.2,39.2,71,29.98,10.0,WNW,4.6,-,N/A,,Overcast,300,2012-10-09 22:55:00
6:15 PM,48.2,39.2,71,29.98,10.0,West,3.5,-,N/A,,Overcast,270,2012-10-09 23:15:00
6:35 PM,48.2,39.2,71,29.99,10.0,West,3.5,-,N/A,,Overcast,270,2012-10-09 23:35:00
6:55 PM,48.2,39.2,71,30.00,10.0,West,4.6,-,N/A,,Mostly Cloudy,270,2012-10-09 23:55:00
7:15 PM,46.4,39.2,76,30.00,10.0,West,4.6,-,N/A,,Clear,260,2012-10-10 00:15:00
7:35 PM,46.4,39.2,76,30.01,10.0,West,4.6,-,N/A,,Clear,270,2012-10-10 00:35:00
7:55 PM,46.4,37.4,71,30.02,10.0,West,6.9,-,N/A,,Clear,270,2012-10-10 00:55:00
8:15 PM,46.4,37.4,71,30.02,10.0,West,5.8,-,N/A,,Clear,260,2012-10-10 01:15:00
8:35 PM,44.6,35.6,71,30.03,10.0,West,4.6,-,N/A,,Clear,260,2012-10-10 01:35:00
8:55 PM,44.6,35.6,71,30.03,10.0,West,6.9,-,N/A,,Clear,270,2012-10-10 01:55:00
9:15 PM,44.6,33.8,66,30.05,10.0,WNW,10.4,18.4,N/A,,Clear,290,2012-10-10 02:15:00
9:35 PM,44.6,32.0,61,30.07,10.0,NW,10.4,-,N/A,,Clear,310,2012-10-10 02:35:00
9:55 PM,44.6,33.8,66,30.08,10.0,NW,9.2,-,N/A,,Clear,310,2012-10-10 02:55:00
10:15 PM,42.8,32.0,66,30.09,10.0,NW,8.1,-,N/A,,Clear,310,2012-10-10 03:15:00
10:35 PM,42.8,32.0,66,30.09,10.0,WNW,6.9,-,N/A,,Clear,300,2012-10-10 03:35:00
10:55 PM,42.8,30.2,61,30.09,10.0,NW,8.1,-,N/A,,Clear,310,2012-10-10 03:55:00
11:15 PM,39.2,30.2,70,30.10,10.0,WNW,8.1,-,N/A,,Clear,290,2012-10-10 04:15:00
11:35 PM,41.0,30.2,65,30.10,10.0,NW,10.4,-,N/A,,Clear,310,2012-10-10 04:35:00
11:55 PM,41.0,30.2,65,30.10,10.0,NW,9.2,-,N/A,,Clear,320,2012-10-10 04:55:00